Temp
28 27 26 25 24 24 23 22 23 22 22 21 21 21 21 21 20 20 20 20 20 20 21 21 20 21 21 21 22 23 23 23 22 23 23 24 24 25 24 24 24 25 25
28 27 27 26 25 24 23 22 22 22 22 21 21 21 21 21 20 20 20 20 20 21 21 20 20 19 20 20 21 21 22 22 22 22 23 24 24 25 25 24 24 25 25
27 27 26 25 25 24 23 22 22 21 22 22 21 21 20 20 20 20 20 20 20 21 21 20 20 19 19 19 20 20 20 21 21 22 22 23 24 25 25 24 25 25 25
27 26 25 25 25 24 23 22 21 21 21 21 21 21 21 21 21 20 20 20 20 20 20 20 19 19 19 19 18 19 19 20 20 21 22 23 23 23 23 23 24 23 23
26 25 24 25 24 23 21 21 21 21 21 21 21 21 20 21 21 20 20 20 20 19 20 19 20 19 19 18 18 18 18 18 19 20 20 22 21 21 21 21 21 22 22
26 25 24 23 22 21 21 20 20 20 20 20 20 20 20 21 20 19 19 19 19 20 19 19 19 19 19 18 18 18 17 17 17 18 19 19 20 19 20 19 20 21 20
25 25 23 22 21 21 20 20 20 20 20 20 20 20 20 20 19 19 19 18 18 19 19 19 18 20 19 17 17 17 18 18 18 17 18 18 18 18 18 18 19 19 20
25 23 22 21 21 20 20 20 20 20 20 20 20 20 19 20 19 18 18 18 18 19 19 19 18 18 18 17 17 16 18 18 18 18 17 18 18 18 18 18 18 19 20
23 22 21 21 21 20 20 20 20 20 20 20 20 20 19 19 19 18 18 17 18 19 20 19 19 18 18 17 16 16 17 18 19 18 18 18 18 18 18 18 19 19 21
22 22 21 21 21 21 21 20 20 20 20 20 20 20 19 19 18 17 17 16 18 19 20 20 20 18 17 17 16 16 16 16 17 18 18 19 19 19 18 18 18 18 19
22 22 21 21 21 21 20 20 19 19 19 19 19 19 19 19 18 18 17 17 17 17 18 19 18 17 16 16 16 15 15 15 16 17 18 18 19 20 19 18 18 18 17
22 21 21 21 20 20 19 19 18 18 18 19 19 19 19 19 18 18 18 18 17 17 16 17 16 16 16 16 16 16 15 15 16 17 18 20 21 20 18 18 18 18 17
21 21 20 19 20 20 19 19 19 19 19 19 20 19 20 20 19 19 19 18 18 17 17 17 17 17 17 17 17 16 16 16 16 17 19 20 20 20 19 19 19 18 17
20 19 19 20 20 20 19 20 19 20 21 21 22 22 23 21 20 19 18 18 18 18 18 17 18 18 17 17 17 17 17 17 17 19 19 19 19 19 19 19 19 19 18
20 21 21 21 20 20 20 21 21 22 22 21 21 20 20 21 19 18 18 18 18 17 17 18 18 18 17 18 18 17 17 18 18 19 18 19 19 19 19 19 19 18 18
21 22 22 23 22 22 22 22 22 22 21 21 21 21 20 20 19 19 19 19 18 18 17 17 17 18 19 20 20 20 20 20 20 19 19 19 19 19 19 19 19 19 18
22 24 24 23 24 24 24 23 23 22 21 21 21 20 20 20 20 19 19 18 17 17 16 16 17 18 19 20 20 20 20 20 20 19 19 19 18 18 18 19 19 18 18
23 23 23 24 24 24 24 24 23 23 22 21 21 21 20 20 19 19 18 17 16 16 16 15 16 17 18 19 19 20 20 20 20 19 19 18 18 18 18 18 19 19 19
22 23 23 23 23 23 22 23 22 22 22 21 21 20 21 19 18 18 17 17 16 17 18 17 18 18 19 19 20 20 20 19 19 18 18 18 18 18 18 18 18 19 19
22 22 21 21 21 22 21 21 20 19 19 21 20 19 18 18 17 17 17 16 15 16 17 19 19 20 20 20 20 20 19 19 19 18 18 18 18 18 18 18 18 18 19
21 19 19 19 19 18 18 18 18 19 19 18 18 15 16 16 17 15 15 14 13 13 13 13 14 13 14 17 15 16 17 19 19 19 19 19 18 18 17 18 18 18 18
20 20 19 20 19 18 18 18 17 17 16 16 16 16 15 15 14 13 12 11 11 11 11 11 11 12 13 11 12 13 13 12 13 13 15 16 18 19 19 19 18 18 18
20 21 20 20 19 19 19 19 18 17 16 15 14 13 12 12 12 12 12 12 11 10 10 10 10 10 10 10 10 10 9 9 8 9 11 13 13 18 18 18 18 18 18
19 19 18 18 18 18 18 17 17 17 16 16 16 16 14 12 12 11 11 11 11 11 11 11 11 10 10 9 9 7 7 7 7 8 8 9 10 11 16 16 17 17 17
17 17 17 17 16 16 15 15 15 15 15 15 15 14 14 14 14 13 12 12 12 11 11 11 11 10 10 10 8 6 6 6 5 5 6 6 8 9 10 13 14 15 14
16 15 15 15 15 15 15 15 14 14 14 14 14 14 13 13 13 13 12 12 12 11 11 11 10 9 9 8 7 7 6 6 6 5 5 4 4 5 7 7 9 11 12
Height
790 795 799 802 804 808 809 811 813 813 814 815 816 817 817 818 817 816 815 815 814 812 811 811 810 808 807 806 805 805 806 807 806 804 802 799 798 796 796 795 795 794 793
788 794 798 802 805 807 810 812 813 813 814 814 815 817 817 817 817 817 816 815 814 813 813 812 811 809 808 806 805 803 803 802 804 804 802 799 797 796 795 795 794 793 792
786 791 796 801 804 806 809 811 812 812 813 814 815 816 817 817 816 817 815 815 814 814 813 813 812 812 810 809 807 805 802 802 802 801 799 798 796 793 793 794 794 792 789
784 789 795 800 803 806 808 811 811 812 812 812 814 816 816 816 814 815 814 815 815 815 814 813 812 812 812 811 810 808 806 803 802 801 799 796 797 795 793 793 792 791 790
785 790 795 800 802 804 807 808 810 812 813 814 813 814 815 814 813 812 813 814 815 815 814 813 812 812 811 810 811 809 807 806 804 802 800 798 796 797 797 796 794 793 792
784 788 795 798 801 805 807 808 810 811 812 812 813 814 813 813 813 813 813 813 814 814 813 813 812 810 810 810 809 809 808 807 806 804 802 802 800 798 800 800 797 797 795
783 789 794 798 802 805 807 809 810 811 812 813 813 814 812 811 812 813 813 812 813 813 813 812 811 811 809 809 808 808 806 805 805 803 803 802 802 799 800 799 799 798 796
785 790 795 800 803 805 807 808 809 811 811 812 812 812 812 811 811 812 813 812 812 811 811 811 811 810 807 808 808 806 805 803 802 802 802 801 800 799 799 799 798 796 794
782 787 792 797 799 801 803 806 807 807 808 810 810 810 810 810 810 809 810 811 811 809 808 808 808 808 806 806 806 805 803 802 801 799 799 798 798 797 797 797 796 795 793
782 787 791 795 799 802 803 804 806 806 806 808 808 808 808 809 809 808 808 809 809 807 805 804 803 804 804 804 804 803 802 801 800 798 797 795 795 795 795 796 796 795 794
781 787 792 794 797 799 801 804 804 805 806 805 806 806 807 807 806 805 806 806 807 805 804 804 802 803 804 802 802 800 801 801 798 796 794 792 791 791 792 794 794 795 795
775 787 796 798 796 797 799 802 804 802 802 804 803 802 802 802 802 803 803 803 804 804 804 804 802 802 801 799 799 798 798 798 796 793 792 789 788 790 791 792 792 794 794
768 771 785 795 798 798 799 800 800 801 798 800 798 798 796 796 797 798 799 800 801 801 800 800 800 800 798 796 795 795 796 795 793 792 789 788 787 788 789 790 790 790 790
776 772 781 791 797 797 798 795 797 796 795 795 794 794 794 793 793 794 796 797 797 797 798 797 797 796 795 793 792 792 791 791 791 789 788 787 787 787 788 787 788 788 788
779 777 782 787 792 793 792 793 794 793 793 792 792 793 793 793 792 794 794 795 795 795 795 795 794 792 790 788 787 787 787 786 786 785 785 786 786 785 785 785 785 785 785
776 775 779 783 785 786 787 788 790 790 790 790 790 790 791 792 792 792 792 791 791 792 793 792 790 788 786 783 782 781 781 781 780 780 781 782 782 782 782 781 781 781 781
771 773 778 782 783 783 784 786 787 785 786 786 785 785 785 785 785 786 786 787 787 789 788 788 788 786 783 781 778 777 777 777 776 777 778 778 778 779 779 778 778 778 778
773 776 779 781 781 781 782 783 783 783 782 783 782 781 781 781 781 781 782 783 782 782 783 783 782 780 778 776 775 774 773 773 773 773 772 773 774 774 774 774 773 773 772
780 780 780 781 781 781 781 780 781 780 778 778 776 777 777 777 778 779 777 777 778 777 777 775 773 772 771 770 768 768 769 769 769 770 770 769 769 769 769 769 769 769 768
781 781 780 781 780 781 780 780 780 780 776 775 774 773 774 771 771 773 774 774 775 777 774 772 769 767 766 765 763 762 762 762 763 763 764 765 764 763 762 763 763 763 762
782 782 781 781 781 780 781 781 780 778 777 775 775 775 775 773 772 773 773 772 770 773 772 770 767 765 764 759 760 759 759 756 757 756 755 755 756 757 756 756 757 757 757
782 780 778 778 779 781 782 782 781 781 779 779 778 776 775 774 774 774 773 771 771 771 771 768 766 764 760 762 759 757 758 755 754 753 750 752 747 747 748 748 749 750 750
780 778 777 777 778 779 779 778 778 779 779 779 778 776 775 774 773 773 772 772 771 769 768 766 765 762 760 759 760 756 758 755 753 750 750 746 744 741 741 741 740 740 742
782 782 781 781 780 780 780 780 778 777 777 775 774 773 773 772 772 771 771 770 768 767 765 763 762 757 761 759 756 759 758 752 751 748 747 746 742 738 736 734 735 734 734
785 785 785 784 784 784 784 783 782 781 779 778 776 775 774 773 772 771 771 770 768 767 765 763 762 760 760 760 756 757 754 751 749 747 744 742 740 735 734 731 729 729 729
789 789 788 787 786 786 785 784 782 781 779 779 776 775 774 774 771 770 769 767 766 766 763 762 761 760 759 758 754 752 750 747 746 743 741 738 735 734 728 728 724 724 722
Wind_Speed
18 13 16 11 8 8 6 4 4 4 3 2 2 1 3 4 6 7 8 6 7 6 6 5 9 10 8 10 11 10 11 12 6 16 20 16 15 11 11 9 11 13 15
18 13 15 13 11 9 7 6 5 4 3 3 2 1 1 3 6 6 7 6 6 6 6 7 10 10 9 12 10 12 10 12 10 12 16 17 14 15 9 8 11 12 12
22 17 15 13 12 11 9 8 7 6 4 4 3 2 1 1 2 4 6 7 9 8 7 7 7 7 9 11 11 14 14 14 13 11 16 20 23 10 9 6 9 16 15
19 18 18 16 14 12 11 9 7 6 6 5 4 3 2 2 1 2 4 6 7 10 11 7 5 3 8 10 11 13 13 13 15 16 16 19 11 15 13 13 15 17 17
19 19 19 16 15 15 11 10 8 6 5 4 3 2 2 4 3 6 2 5 5 7 9 10 8 10 11 6 7 10 10 10 13 15 15 14 12 13 14 13 13 17 17
20 19 18 17 14 12 10 9 8 6 5 3 3 4 3 1 1 3 3 4 9 8 4 9 11 15 8 6 8 8 8 7 8 10 11 13 12 10 11 13 12 13 5
18 18 18 14 13 11 9 8 6 4 4 4 4 5 4 5 5 5 6 6 9 10 7 7 10 8 6 4 8 8 9 8 10 7 8 8 7 8 9 11 12 13 15
17 18 16 14 11 10 8 6 5 5 5 5 4 4 6 6 8 7 8 9 9 11 8 7 9 11 8 8 12 8 9 9 8 10 7 6 7 10 10 12 15 20 18
20 19 17 15 14 12 9 7 6 6 5 6 6 5 6 8 8 7 7 7 12 17 9 9 10 8 11 10 10 10 12 11 8 7 8 7 7 7 3 8 10 15 10
20 18 16 14 12 10 7 7 6 5 5 6 4 5 6 5 7 7 7 7 12 16 10 12 15 11 9 8 8 8 15 8 8 8 11 13 12 10 7 1 7 12 15
18 16 15 13 11 10 9 8 7 5 6 3 5 7 8 8 8 7 7 7 8 11 12 14 2 8 6 9 10 9 10 15 16 14 16 17 17 13 11 6 3 3 12
20 14 12 11 11 10 9 8 6 5 6 9 9 11 14 17 14 8 4 5 8 11 10 10 3 6 10 13 13 12 11 14 16 15 20 17 5 3 9 2 5 11 7
24 22 14 9 7 8 9 8 6 8 8 10 13 16 17 19 16 12 8 5 5 6 7 8 14 16 16 12 10 11 12 13 14 18 13 13 2 2 8 12 7 11 12
14 16 13 11 10 8 8 6 9 8 12 16 11 11 10 11 18 18 15 10 8 6 6 7 12 13 15 15 16 15 15 10 13 9 16 13 11 7 10 11 6 10 13
12 12 12 11 13 11 8 7 9 9 7 9 9 9 9 7 5 5 11 10 6 6 7 10 13 16 22 21 20 20 20 16 16 12 11 11 10 11 9 9 10 10 12
15 10 12 9 15 12 9 11 14 13 12 11 11 16 17 13 11 12 12 11 12 12 13 12 14 19 19 15 13 12 12 15 16 14 13 12 12 13 13 12 12 13 11
8 5 2 5 9 7 5 7 10 11 15 17 18 15 13 15 17 16 13 13 14 14 15 16 17 21 22 19 14 11 11 12 6 5 9 14 16 16 16 13 13 14 15
1 2 1 7 8 8 7 7 8 11 4 9 14 22 20 19 19 17 18 18 17 18 20 21 22 23 22 20 16 14 13 11 11 12 15 16 16 16 17 17 15 15 16
4 6 9 8 3 6 8 9 11 16 13 17 16 12 12 18 23 22 20 20 17 18 20 25 27 25 24 24 20 18 15 15 16 16 14 12 13 14 16 17 17 19 19
11 9 6 8 9 10 11 10 12 19 20 13 15 11 5 8 17 21 20 19 19 21 21 22 22 21 20 20 18 18 19 19 19 20 22 21 20 18 18 17 17 17 18
6 5 6 6 9 11 13 13 13 13 15 15 15 9 8 6 7 4 2 5 2 7 10 10 11 13 16 12 17 19 21 17 19 20 23 23 23 22 23 22 20 20 20
3 3 3 3 5 6 8 12 11 13 14 13 12 11 16 9 9 9 10 9 9 9 13 13 15 13 14 18 12 13 18 21 18 18 22 28 29 23 22 21 20 20 20
13 10 11 8 4 7 7 9 6 7 7 9 10 11 10 11 10 9 9 8 9 8 10 12 13 16 16 15 16 13 15 17 19 18 18 25 26 19 23 25 26 23 22
10 11 12 12 12 12 12 15 15 15 11 14 14 9 5 5 8 9 8 11 13 13 15 15 14 14 14 16 15 10 15 19 20 19 20 21 19 23 19 17 18 20 23
10 11 11 11 11 11 11 11 12 12 11 12 11 11 11 13 11 11 12 12 11 15 15 15 14 17 15 16 8 16 18 15 21 25 25 25 24 23 23 20 17 20 18
9 9 10 10 10 9 10 9 10 10 10 12 12 12 12 15 15 12 14 12 11 17 14 14 14 15 15 14 15 24 21 23 27 28 30 30 27 28 22 27 23 19 21
Wind_Direction
175 173 160 153 151 156 147 141 134 139 120 96 72 59 43 24 19 11 359 6 351 351 335 342 334 327 341 343 336 337 337 340 346 319 328 326 336 340 324 314 312 301 285
160 167 146 151 160 151 149 154 157 147 150 142 126 101 45 23 8 4 7 359 344 345 350 359 358 351 352 351 352 352 347 315 311 298 306 311 299 289 297 261 287 298 299
155 157 153 161 166 159 161 164 166 164 163 158 155 187 244 343 14 10 20 4 2 350 3 347 341 359 354 352 350 348 347 341 338 335 322 317 315 321 278 267 296 301 282
162 163 160 175 169 167 167 167 166 174 171 170 189 204 248 298 316 42 30 11 360 350 355 344 338 336 329 328 323 345 347 347 335 324 309 311 335 15 25 16 345 4 8
167 165 167 180 163 160 164 168 169 178 182 192 195 223 259 291 293 149 31 345 341 342 337 338 331 318 310 319 343 325 339 337 333 332 337 339 12 10 14 4 359 346 346
175 166 171 158 160 159 167 171 173 180 185 187 211 224 231 289 27 339 340 321 327 309 341 330 322 307 268 320 334 323 323 317 314 325 327 337 1 10 13 354 343 334 326
166 162 153 152 160 169 169 176 181 191 205 220 244 261 280 282 251 319 327 325 299 306 310 332 321 339 339 323 310 310 301 301 283 289 300 340 356 5 347 330 319 314 303
164 146 150 158 168 170 175 179 186 211 229 242 262 287 290 288 276 284 301 314 303 289 278 302 305 310 317 328 326 311 304 293 292 274 280 300 302 312 312 306 301 297 305
153 151 163 175 173 176 183 194 203 213 226 249 258 266 275 285 254 252 286 304 289 295 277 276 274 276 294 314 320 305 318 298 309 281 274 296 297 304 304 324 330 329 318
157 162 167 174 177 183 191 197 213 225 236 258 266 258 266 275 279 276 283 297 291 303 309 304 264 244 256 304 313 307 309 338 316 300 292 281 267 260 242 339 321 341 337
151 157 165 170 175 183 190 196 205 223 264 276 262 277 256 250 261 264 274 290 294 309 335 324 207 229 268 311 307 300 287 303 303 288 279 273 259 253 239 177 290 318 339
146 153 176 183 178 183 177 191 214 214 250 256 252 256 256 237 232 247 255 285 275 283 285 307 320 308 310 315 299 288 287 292 294 290 287 280 252 203 118 138 310 310 262
158 159 168 196 193 178 189 198 216 229 240 255 243 232 255 213 219 223 221 243 272 293 287 263 286 296 297 289 295 283 280 285 281 286 315 330 348 274 296 318 294 274 267
152 150 169 186 202 201 217 222 221 238 236 238 250 268 279 214 208 209 208 216 235 255 291 282 297 290 282 275 268 271 255 259 263 306 299 303 319 309 277 269 255 301 257
170 169 180 196 203 218 227 251 273 287 280 293 303 331 348 18 87 135 208 214 218 215 256 278 292 278 264 265 257 249 247 245 237 268 261 284 288 283 270 261 253 269 277
183 185 204 212 198 212 221 234 253 244 246 261 272 269 271 270 279 282 281 278 283 278 278 281 281 285 289 277 245 252 256 247 243 245 254 257 276 278 276 273 252 241 256
208 205 168 202 277 286 222 248 280 257 244 249 252 248 245 244 255 260 266 270 268 270 270 272 268 271 275 278 275 276 280 286 278 255 267 279 278 285 289 273 259 268 269
193 1 214 270 250 257 254 267 294 296 285 278 298 257 256 252 248 253 257 258 254 258 260 253 255 261 267 272 284 274 270 266 268 263 250 247 251 258 267 276 276 259 249
264 264 215 268 356 344 318 311 302 292 278 298 296 298 268 258 268 256 249 248 244 243 248 249 251 248 250 249 247 252 260 260 263 268 269 263 261 260 258 263 267 269 271
265 253 340 333 318 320 330 321 323 324 326 311 322 360 314 249 258 249 258 260 262 276 270 270 272 273 278 279 269 251 244 247 250 247 253 257 257 253 255 263 270 269 271
337 35 341 329 322 328 326 330 332 319 322 343 329 38 12 335 337 41 26 62 278 295 325 338 342 356 352 321 332 330 313 249 258 257 243 243 241 238 239 242 247 255 265
312 314 278 327 350 359 350 333 356 341 347 349 332 345 9 14 7 11 5 359 360 336 325 335 340 343 345 350 344 344 338 332 324 316 297 295 246 238 246 239 243 251 254
331 340 339 344 313 301 296 297 286 295 317 323 324 328 338 336 335 339 338 339 328 331 334 345 336 351 350 354 345 335 338 345 346 337 316 311 321 258 250 259 248 248 250
1 357 354 338 344 342 341 349 338 346 341 339 338 328 312 326 336 336 337 352 352 354 352 356 349 17 351 359 2 343 0 357 349 334 334 326 303 320 281 269 268 261 268
9 4 352 357 351 352 347 344 344 341 339 341 338 343 341 342 335 343 347 341 352 352 351 353 1 357 354 352 67 10 359 357 352 347 334 327 318 319 317 303 281 275 271
15 9 4 1 357 359 346 345 343 341 352 337 337 342 356 338 324 343 335 322 350 333 328 333 334 337 341 336 334 339 342 340 334 328 326 326 318 311 314 306 304 294 280